FW6626 Weather Reports


time (UTC)temp
F
wind
direction
speed
knots
gust
knots
rain 1hr
in
rain 24hr
in
rain mn
in
humidity
%
barometer
mb
20260510113104 61 230 1.7 3.5 0.00 0.00 0.00 84 1013.0
20260510111551 61 0 0.0 2.6 0.00 0.00 0.00 84 1013.0
20260510110056 61 149 0.0 3.5 0.00 0.00 0.00 84 1013.0
20260510104555 61 0 0.9 4.3 0.00 0.00 0.00 84 1013.0
20260510103059 61 148 0.9 2.6 0.00 0.00 0.00 84 1013.0
20260510101554 61 0 0.9 2.6 0.00 0.00 0.00 84 1013.1
20260510100109 61 147 0.9 3.5 0.00 0.00 0.00 84 1013.1
20260510094600 61 144 0.0 2.6 0.00 0.00 0.00 83 1013.1
20260510093058 61 144 0.0 2.6 0.00 0.00 0.00 83 1013.1
20260510091554 61 143 1.7 4.3 0.00 0.00 0.00 83 1013.2
20260510090058 61 0 0.0 4.3 0.00 0.00 0.00 83 1013.1
20260510084611 61 182 0.9 4.3 0.00 0.00 0.00 83 1013.2
20260510083053 62 215 0.0 2.6 0.00 0.00 0.00 83 1013.3
20260510081555 62 0 0.0 0.0 0.00 0.00 0.00 83 1013.4
20260510080051 62 0 0.0 0.0 0.00 0.00 0.00 83 1013.5
20260510074549 62 217 0.9 4.3 0.00 0.00 0.00 83 1013.6
20260510073103 62 226 1.7 3.5 0.00 0.00 0.00 83 1013.7
20260510071553 62 236 0.9 2.6 0.00 0.00 0.00 83 1013.8
20260510070059 62 237 0.0 1.7 0.00 0.00 0.00 83 1013.9
20260510064552 62 237 0.0 2.6 0.00 0.00 0.00 83 1013.9
20260510063053 62 0 0.0 1.7 0.00 0.00 0.00 83 1014.1
20260510061556 62 239 0.0 2.6 0.00 0.00 0.00 83 1014.0
20260510060055 62 240 0.0 2.6 0.00 0.00 0.00 83 1013.8
20260510054551 62 242 0.9 3.5 0.00 0.00 0.00 82 1013.8
20260510053051 62 243 0.9 2.6 0.00 0.00 0.00 82 1013.9
20260510051550 62 244 0.0 1.7 0.00 0.00 0.00 82 1013.8
20260510050052 62 244 0.9 3.5 0.00 0.00 0.00 82 1013.8
20260510044556 62 0 1.7 3.5 0.00 0.00 0.00 82 1013.8
20260510043102 61 241 0.0 1.7 0.00 0.00 0.00 83 1013.8
20260510041551 61 240 0.9 2.6 0.00 0.00 0.00 83 1013.7
20260510040100 61 0 0.9 2.6 0.00 0.00 0.00 82 1013.5
20260510034557 61 242 1.7 3.5 0.00 0.00 0.00 83 1013.6
20260510033115 61 240 0.9 3.5 0.00 0.00 0.00 82 1013.4
20260510031558 62 244 0.9 3.5 0.00 0.00 0.00 82 1013.1
20260510030059 62 242 1.7 4.3 0.00 0.00 0.00 82 1013.0
20260510024552 62 248 0.9 4.3 0.00 0.00 0.00 82 1012.9
20260510023049 62 229 1.7 5.2 0.00 0.00 0.00 82 1012.9
20260510021550 62 239 1.7 4.3 0.00 0.00 0.00 81 1012.8
20260510020053 63 250 0.9 7.0 0.00 0.00 0.00 81 1012.6
20260510014555 64 259 2.6 7.0 0.00 0.00 0.00 80 1012.7
20260510013055 65 238 2.6 7.8 0.00 0.00 0.00 78 1012.7
20260510011552 67 242 1.7 7.0 0.00 0.00 0.00 76 1012.7
20260510010059 67 235 1.7 8.7 0.00 0.00 0.00 76 1012.7
20260510004610 67 252 2.6 8.7 0.00 0.00 0.00 75 1012.8
20260510003057 66 290 4.3 9.6 0.00 0.00 0.00 76 1012.9
20260510001553 67 259 3.5 10.4 0.00 0.00 0.00 75 1012.8
20260510000104 67 360 5.2 9.6 0.00 0.00 0.00 76 1012.5
20260509234559 68 211 3.5 8.7 0.00 0.00 0.00 74 1012.3
20260509233052 69 252 2.6 10.4 0.00 0.00 0.00 73 1012.5
20260509231554 68 238 4.3 8.7 0.00 0.00 0.00 73 1012.6
20260509230050 68 261 4.3 10.4 0.00 0.00 0.00 73 1012.5
20260509224555 68 225 5.2 9.6 0.00 0.00 0.00 74 1012.8
20260509223101 69 228 2.6 9.6 0.00 0.00 0.00 72 1012.8
20260509221552 70 182 4.3 10.4 0.00 0.00 0.00 71 1012.9
20260509220053 68 250 3.5 8.7 0.00 0.00 0.00 73 1013.0
20260509214602 68 240 3.5 12.2 0.00 0.00 0.00 73 1013.2
20260509213055 69 234 4.3 9.6 0.00 0.00 0.00 73 1013.2
20260509211554 69 252 5.2 11.3 0.00 0.00 0.00 73 1013.4
20260509210106 68 230 5.2 11.3 0.00 0.00 0.00 75 1013.6
20260509204558 68 245 4.3 10.4 0.00 0.00 0.00 74 1013.6
20260509203059 69 234 4.3 9.6 0.00 0.00 0.00 74 1013.8
20260509201608 69 249 5.2 10.4 0.00 0.00 0.00 73 1013.9
20260509200107 68 246 4.3 10.4 0.00 0.00 0.00 74 1013.9
20260509194554 68 360 4.3 10.4 0.00 0.00 0.00 75 1013.8
20260509193057 68 236 4.3 11.3 0.00 0.00 0.00 74 1013.8
20260509191553 69 198 5.2 11.3 0.00 0.00 0.00 75 1013.8
20260509190053 69 222 4.3 8.7 0.00 0.00 0.00 74 1013.9
20260509184602 69 217 4.3 8.7 0.00 0.00 0.00 74 1013.9
20260509183057 69 233 3.5 7.8 0.00 0.00 0.00 74 1014.0
20260509181609 69 211 4.3 9.6 0.00 0.00 0.00 75 1013.9
20260509180051 69 232 3.5 7.8 0.00 0.00 0.00 74 1013.9
20260509174550 69 233 2.6 7.8 0.00 0.00 0.00 75 1014.1
20260509173102 69 234 2.6 7.8 0.00 0.00 0.00 73 1014.1
20260509171556 70 188 2.6 7.8 0.00 0.00 0.00 74 1014.2
20260509170048 68 227 1.7 7.0 0.00 0.00 0.00 75 1014.0
20260509164551 66 253 2.6 6.1 0.00 0.00 0.00 78 1014.1
20260509163050 65 182 0.9 4.3 0.00 0.00 0.00 80 1014.2
20260509161549 63 254 1.7 5.2 0.00 0.00 0.00 81 1014.3
20260509160049 63 217 0.9 3.5 0.00 0.00 0.00 82 1014.2
20260509154552 63 211 1.7 5.2 0.00 0.00 0.00 83 1014.2
20260509153054 63 163 2.6 4.3 0.00 0.00 0.00 82 1014.2
20260509151604 63 191 0.9 3.5 0.00 0.00 0.00 83 1014.2
20260509150050 62 167 0.9 5.2 0.00 0.00 0.00 84 1014.2
20260509144607 62 167 0.9 3.5 0.00 0.00 0.00 84 1014.1
20260509143119 62 0 0.0 3.5 0.00 0.00 0.00 85 1013.9
20260509141554 62 166 1.7 4.3 0.00 0.00 0.00 85 1014.1
20260509134609 61 153 0.9 5.2 0.00 0.00 0.00 85 1014.0
20260509133051 61 151 1.7 6.1 0.00 0.00 0.00 85 1013.8
20260509131551 61 156 1.7 5.2 0.00 0.00 0.00 85 1013.8
20260509130057 61 155 1.7 4.3 0.00 0.00 0.00 85 1013.8
20260509124552 61 163 2.6 6.1 0.00 0.00 0.00 85 1013.8
20260509123109 61 159 2.6 6.1 0.00 0.00 0.00 86 1013.7
20260509121610 61 169 0.9 3.5 0.00 0.00 0.00 86 1013.7
20260509120112 61 170 0.9 3.5 0.00 0.00 0.00 86 1013.7
20260509114605 61 170 2.6 4.3 0.00 0.00 0.00 85 1013.8